Home > Weather > Santarém > Past weeks

Flag for Brazil Weather for the Past 2 Weeks in Santarém, Pará, Brazil

Now
81 °F

Passing clouds.


Feels Like: 85 °F
Forecast: 77 / 90 °F
Wind: 3 mph from Southeast

Location: Santarem-Aeroporto

Current Time: Feb 6, 2016 at 12:38:28 AM

Latest Report: Feb 6, 2016 at 12:00 AM


Visibility: N/A

Pressure: 29.92 "Hg

Humidity: 79%

Dew point: 73 °F

Location of SantarémLocation

Historic Weather in Santarém — Graph

°F

Santarém Temperature Yesterday

Maximum temperature yesterday: 90 °F (at 3:00 PM)
Minimum temperature yesterday: 77 °F (at 12:00 AM)
Average temperature yesterday: 82 °F

High & Low Weather Summary for the Past Weeks

 TemperatureHumidityPressure
High95 °F (Jan 23, 4:00 PM)100% (Feb 1, 4:00 AM)29.98 "Hg (Feb 1, 4:00 AM)
Low73 °F (Jan 22, 6:00 AM)18% (Jan 30, 6:00 PM)29.74 "Hg (Jan 24, 6:00 PM)
Average82 °F78%29.87 "Hg
* Reported Jan 21 11:00 PM — Feb 5 11:00 PM, Santarém, Weather by CustomWeather, © 2016

Note: Actual official high and low records may vary slightly from our data, if they occured in-between our weather recording intervals... More about our weather records

Advertising

Santarém Weather History for the Previous 24 Hours

 ConditionsComfort  
Time TempWeatherWind HumidityBarometerVisibility
11:00 PM
Fri, Feb 5
81 °FPassing clouds.3 mph79%29.92 "HgN/A
10:00 PM81 °FPassing clouds.14 mph79%29.92 "HgN/A
9:00 PM81 °FPassing clouds.15 mph84%29.86 "HgN/A
8:00 PM82 °FThundershowers. Passing clouds.9 mph74%29.83 "HgN/A
7:00 PM84 °FScattered clouds.7 mph70%29.80 "HgN/A
6:00 PM84 °FPartly sunny.6 mph70%29.80 "HgN/A
5:00 PM90 °FBroken clouds.17 mph59%29.80 "HgN/A
4:00 PM90 °FScattered clouds.15 mph59%29.83 "HgN/A
3:00 PM90 °FScattered clouds.15 mph59%29.86 "HgN/A
2:00 PM88 °FScattered clouds.17 mph66%29.89 "HgN/A
1:00 PM88 °FScattered clouds.14 mph66%29.92 "HgN/A
12:00 PM84 °FBroken clouds.15 mph74%29.95 "HgN/A
11:00 AM84 °FBroken clouds.13 mph74%29.95 "HgN/A
10:00 AM81 °FBroken clouds.9 mph84%29.95 "HgN/A
9:00 AM79 °FBroken clouds.8 mph89%29.92 "HgN/A
8:00 AM77 °FBroken clouds.3 mph89%29.92 "HgN/A
7:00 AM77 °FPartly cloudy.12 mph89%29.89 "HgN/A
6:00 AM77 °FPartly cloudy.9 mph89%29.83 "HgN/A
5:00 AM77 °FPartly cloudy.12 mph89%29.83 "HgN/A
4:00 AM77 °FMostly cloudy.7 mph89%29.83 "HgN/A
3:00 AM77 °FLight rain. Mostly cloudy.12 mph89%29.86 "Hg4 mi
2:00 AM77 °FPartly cloudy.9 mph89%29.86 "HgN/A
12:00 AM77 °FLight rain. Partly cloudy.12 mph89%29.89 "Hg5 mi
Weather by CustomWeather, © 2016

See weather overviewHow to use our weather pages